Date String (YYYY-MM-DD hh:mm:ss) UTC,Instrument flags,Ambient pressure (hPa),Sample flow (lpm),Bypass flow (lpm),Sample temperature (°C),Ambient temperature (°C),ASC tube jacket temperature (°C),LED temperature (°C),Box temperature (°C),Sample RH (%),Span deviation,Mass concentration (μg/m³),Mass concentration (μg/m³),Mass concentration (μg/m³)
DateTimeUTC,F1_M11,P_M11,Q1_M11,Q2_M11,T1_M11,T2_M11,T3_M11,T4_M11,T5_M11,U1_M11,ZSPAN_M11,X2_M11,X0_M11,X1_M11
2023-02-08 19:00:00,,0823.1,4.98,0.00,24.9,23.5,00.0,33.7,26.7,10.4,0000.0,0006.62,0015.40,0005.55
2023-02-08 19:01:00,,0823.1,5.01,0.00,24.9,23.5,00.0,33.7,26.7,09.1,0000.0,0006.43,0014.89,0005.36
2023-02-08 19:02:00,,0823.1,5.02,0.00,24.9,23.5,00.0,33.7,26.7,10.7,0000.0,0006.38,0014.93,0005.29
2023-02-08 19:03:00,,0823.1,4.99,0.00,24.9,23.4,00.0,33.7,26.7,11.3,0000.0,0006.49,0015.29,0005.37
2023-02-08 19:04:00,,0823.1,5.00,0.00,24.9,23.4,00.0,33.7,26.7,11.3,0000.0,0006.58,0015.61,0005.48
2023-02-08 19:05:00,,0823.0,4.99,0.00,24.9,23.4,00.0,33.7,26.7,11.3,0000.0,0006.73,0016.97,0005.60
2023-02-08 19:06:00,,0823.0,5.03,0.00,24.9,23.3,00.0,33.7,26.7,11.1,0000.0,0006.91,0018.01,0005.73
2023-02-08 19:07:00,,0822.9,4.99,0.00,24.8,23.3,00.0,33.7,26.7,10.3,0000.0,0006.89,0018.14,0005.71
2023-02-08 19:08:00,,0823.0,5.01,0.00,24.8,23.4,00.0,33.7,26.6,10.4,0000.0,0006.76,0017.66,0005.60
2023-02-08 19:09:00,,0823.0,5.01,0.00,24.8,23.4,00.0,33.7,26.7,10.6,0000.0,0006.73,0017.00,0005.56
2023-02-08 19:10:00,,0823.0,5.01,0.00,24.8,23.5,00.0,33.7,26.7,10.3,0000.0,0006.65,0015.38,0005.48
2023-02-08 19:11:00,,0823.0,5.00,0.00,24.9,23.5,00.0,33.7,26.7,11.3,0000.0,0006.77,0015.40,0005.57
2023-02-08 19:12:00,,0823.1,4.98,0.00,24.9,23.6,00.0,33.7,26.7,11.8,0000.0,0007.26,0016.75,0005.92
2023-02-08 19:13:00,,0823.1,4.98,0.00,24.9,23.6,00.0,33.7,26.7,12.1,0000.0,0007.54,0017.43,0006.15
2023-02-08 19:14:00,,0823.2,4.94,0.00,24.9,23.6,00.0,33.7,26.7,11.9,0000.0,0007.67,0018.20,0006.24
2023-02-08 19:15:00,,0823.1,4.97,0.00,24.9,23.7,00.0,33.7,26.7,11.3,0000.0,0007.72,0018.32,0006.28
2023-02-08 19:16:00,,0823.1,4.99,0.00,24.9,23.7,00.0,33.7,26.7,11.5,0000.0,0007.78,0017.61,0006.35
2023-02-08 19:17:00,,0823.1,5.05,0.00,24.9,23.7,00.0,33.7,26.8,11.4,0000.0,0007.90,0017.07,0006.43
2023-02-08 19:18:00,,0823.1,4.97,0.00,24.9,23.7,00.0,33.7,26.8,11.6,0002.2,0008.10,0017.52,0006.57
2023-02-08 19:19:00,,0823.1,4.98,0.00,25.0,23.8,00.0,33.7,26.8,11.6,0003.0,0008.43,0018.51,0006.84
2023-02-08 19:20:00,,0823.1,4.98,0.00,25.0,23.8,00.0,33.7,26.8,12.0,0002.3,0008.73,0019.41,0007.08
2023-02-08 19:21:00,,0823.1,4.95,0.00,25.0,23.8,00.0,33.7,26.8,12.2,0001.9,0009.11,0020.22,0007.39
2023-02-08 19:22:00,,0823.0,5.01,0.00,25.0,23.9,00.0,33.7,26.8,11.8,0002.3,0009.39,0021.25,0007.60
2023-02-08 19:23:00,,0823.1,4.97,0.00,25.0,23.9,00.0,33.8,26.9,11.4,0002.3,0009.34,0021.10,0007.61
2023-02-08 19:24:00,,0822.9,4.99,0.00,25.0,23.9,00.0,33.8,26.9,11.3,0002.0,0009.26,0020.65,0007.56
2023-02-08 19:25:00,,0823.0,5.02,0.00,25.0,23.9,00.0,33.8,26.9,11.9,0002.0,0009.36,0020.32,0007.64
2023-02-08 19:26:00,,0823.0,5.03,0.00,25.1,23.8,00.0,33.8,26.9,12.2,0001.5,0009.55,0021.06,0007.82
2023-02-08 19:27:00,,0823.0,5.00,0.00,25.1,23.8,00.0,33.8,26.9,12.1,0002.4,0009.77,0021.39,0008.00
2023-02-08 19:28:00,,0822.9,5.01,0.00,25.1,23.8,00.0,33.8,26.9,11.9,0001.3,0009.96,0022.75,0008.18
2023-02-08 19:29:00,,0823.0,4.98,0.00,25.1,23.7,00.0,33.8,26.9,11.9,0000.0,0010.11,0023.42,0008.36
2023-02-08 19:30:00,,0822.9,5.03,0.00,25.1,23.7,00.0,33.8,26.9,11.8,0000.0,0010.25,0023.89,0008.47
2023-02-08 19:31:00,,0823.0,5.02,0.00,25.1,23.7,00.0,33.8,26.9,12.0,0000.0,0010.40,0024.07,0008.58
2023-02-08 19:32:00,,0823.0,5.03,0.00,25.1,23.7,00.0,33.8,26.9,11.9,0000.0,0010.46,0024.09,0008.68
2023-02-08 19:33:00,,0823.0,4.96,0.00,25.1,23.6,00.0,33.8,26.9,11.8,0000.0,0010.58,0024.39,0008.79
2023-02-08 19:34:00,,0822.9,5.01,0.00,25.1,23.7,00.0,33.8,26.8,11.8,0000.0,0010.77,0025.13,0008.95
2023-02-08 19:35:00,,0822.9,4.97,0.00,25.1,23.7,00.0,33.8,26.8,11.7,0000.0,0011.03,0025.76,0009.14
2023-02-08 19:36:00,,0822.9,5.01,0.00,25.1,23.8,00.0,33.8,26.8,11.8,0000.0,0011.04,0025.67,0009.20
2023-02-08 19:37:00,,0823.0,4.98,0.00,25.1,23.8,00.0,33.8,26.8,11.5,0000.0,0011.00,0025.09,0009.16
2023-02-08 19:38:00,,0823.0,4.99,0.00,25.1,23.9,00.0,33.9,26.9,11.5,0000.0,0010.93,0025.34,0009.10
2023-02-08 19:39:00,,0823.0,4.98,0.00,25.1,23.9,00.0,33.9,26.9,11.5,0000.0,0010.94,0024.87,0009.06
2023-02-08 19:40:00,,0823.0,4.97,0.00,25.1,23.9,00.0,33.9,26.9,11.4,0001.0,0010.90,0024.02,0009.01
2023-02-08 19:41:00,,0823.0,5.04,0.00,25.1,23.9,00.0,33.9,27.0,11.2,0000.0,0010.83,0024.26,0008.96
2023-02-08 19:42:00,,0823.0,5.00,0.00,25.1,23.9,00.0,33.9,27.0,11.2,0000.0,0010.71,0024.14,0008.90
2023-02-08 19:43:00,,0822.9,5.02,0.00,25.1,24.0,00.0,33.9,27.0,11.2,0000.0,0010.70,0024.52,0008.83
2023-02-08 19:44:00,,0823.0,4.99,0.00,25.2,24.0,00.0,33.9,27.0,10.1,0002.2,0010.43,0023.94,0008.58
2023-02-08 19:45:00,,0822.9,5.01,0.00,25.2,24.0,00.0,33.9,27.0,09.7,0000.0,0009.94,0022.15,0008.19
2023-02-08 19:46:00,,0822.8,5.01,0.00,25.2,24.0,00.0,33.9,27.0,09.5,0000.0,0009.45,0021.66,0007.79
2023-02-08 19:47:00,,0822.8,4.99,0.00,25.2,23.9,00.0,33.9,27.0,08.5,0000.0,0008.83,0021.00,0007.21
2023-02-08 19:48:00,,0822.8,4.96,0.00,25.2,23.9,00.0,33.9,27.0,09.1,0000.0,0008.22,0020.07,0006.71
2023-02-08 19:49:00,,0822.8,4.99,0.00,25.2,23.9,00.0,34.0,27.0,09.1,0000.0,0007.77,0019.19,0006.32
2023-02-08 19:50:00,,0822.8,4.97,0.00,25.2,23.9,00.0,34.0,27.0,09.2,0000.0,0007.20,0018.79,0005.91
2023-02-08 19:51:00,,0822.9,5.01,0.00,25.2,24.0,00.0,34.0,27.0,09.3,0000.0,0006.80,0018.30,0005.55
2023-02-08 19:52:00,,0822.8,4.96,0.00,25.2,24.0,00.0,34.0,27.0,10.1,0000.0,0006.56,0017.86,0005.32
2023-02-08 19:53:00,,0822.9,5.00,0.00,25.2,24.0,00.0,34.0,27.1,09.8,0000.0,0006.19,0017.18,0005.02
2023-02-08 19:54:00,,0822.7,5.02,0.00,25.2,24.0,00.0,34.0,27.1,09.9,0000.0,0005.74,0016.11,0004.66
2023-02-08 19:55:00,,0822.9,5.03,0.00,25.2,24.0,00.0,34.0,27.1,11.0,0000.0,0005.52,0015.52,0004.51
2023-02-08 19:56:00,,0822.9,4.99,0.00,25.2,24.0,00.0,34.0,27.1,11.7,0000.0,0005.74,0015.46,0004.69
2023-02-08 19:57:00,,0822.9,5.01,0.00,25.2,24.0,00.0,34.0,27.1,11.5,0000.0,0006.14,0016.83,0004.94
2023-02-08 19:58:00,,0822.9,5.02,0.00,25.2,24.0,00.0,34.0,27.1,10.2,0000.0,0006.40,0016.47,0005.17
2023-02-08 19:59:00,,0822.8,5.01,0.00,25.2,23.9,00.0,34.0,27.1,08.5,0000.0,0006.40,0016.11,0005.17
